sat.trackr.live / text

‹ back to catalog

SENTINEL-2B

NORAD 42063 · 2017-013A

PAYLOAD ACTIVE UNKNOWN

§ Identity

Operator
Country
ESA
Launch date
2017-03-07
Launch site
FRGUI
Launch vehicle
Mass (kg)
RCS (m²)
2.51

Purposes: earth_obs

External: N2YO · Heavens-Above · Gunter

§ Orbital elements

Epoch: 2026-05-25T04:48:39.974688Z

Period
100.64 min
Inclination
98.5689°
Eccentricity
0.0001220
Mean motion
14.30820531 rev/d
Perigee alt
788.1 km
Apogee alt
789.9 km
Semi-major
7,167.1 km
B*
-2.7453e-5
RAAN
220.2987°
Arg perigee
90.0535°
Mean anomaly
270.0787°
Rev number
48,135

§ Raw data

SENTINEL-2B1 42063U 17013A   26145.20046267 -.00000116  00000+0 -27453-4 0  99962 42063  98.5689 220.2987 0001220  90.0535 270.0787 14.30820531481358

JSON: /api/v1/satellites/42063 · /tle

For live sub-satellite position, see the globe view (requires WebGL).

§ Visibility from observer

Set your observer location to see the next 7 days of passes ≥ 10°. The values pass through the URL so the page stays shareable.

No JS? Fill the form by hand. The geolocation button needs JavaScript.